QPF
0.02 0.04 0.05 0.05 0.05 0.08 0.10 0.09 0.08 0.08 0.10 0.11 0.12 0.15 0.17 0.16 0.13 0.11 0.11 0.10 0.08 0.09 0.09 0.07 0.05 0.03 0.03 0.03 0.02 0.01 0.02 0.02 0.02 0.02 0.01 0.01 0.02 0.02 0.01 0.00 0.01 0.02 0.01
0.01 0.02 0.03 0.04 0.04 0.06 0.09 0.08 0.08 0.07 0.10 0.13 0.12 0.14 0.17 0.17 0.17 0.15 0.11 0.10 0.07 0.06 0.07 0.07 0.05 0.03 0.02 0.03 0.02 0.02 0.02 0.02 0.02 0.02 0.02 0.02 0.01 0.01 0.00 0.00 0.01 0.01 0.01
0.01 0.01 0.02 0.04 0.04 0.05 0.07 0.09 0.08 0.08 0.10 0.11 0.13 0.13 0.14 0.15 0.17 0.19 0.13 0.10 0.07 0.05 0.05 0.07 0.06 0.02 0.02 0.02 0.02 0.02 0.02 0.02 0.03 0.03 0.02 0.01 0.01 0.01 0.01 0.01 0.01 0.01 0.00
0.01 0.01 0.01 0.03 0.04 0.05 0.06 0.07 0.08 0.08 0.10 0.10 0.12 0.16 0.15 0.15 0.17 0.18 0.16 0.12 0.09 0.05 0.04 0.06 0.05 0.03 0.03 0.03 0.02 0.03 0.02 0.02 0.03 0.03 0.02 0.01 0.00 0.00 0.01 0.01 0.01 0.01 0.00
0.00 0.01 0.01 0.02 0.04 0.05 0.06 0.06 0.08 0.09 0.10 0.12 0.12 0.14 0.19 0.17 0.18 0.17 0.18 0.16 0.12 0.06 0.04 0.03 0.05 0.03 0.03 0.03 0.03 0.04 0.02 0.01 0.02 0.02 0.02 0.02 0.01 0.00 0.01 0.01 0.01 0.01 0.00
0.01 0.01 0.01 0.02 0.03 0.04 0.04 0.05 0.07 0.09 0.10 0.13 0.15 0.13 0.17 0.18 0.18 0.16 0.18 0.17 0.16 0.12 0.09 0.05 0.03 0.02 0.02 0.03 0.04 0.04 0.03 0.02 0.01 0.01 0.02 0.01 0.02 0.01 0.01 0.00 0.00 0.00 0.00
0.01 0.01 0.01 0.02 0.02 0.02 0.02 0.05 0.07 0.09 0.11 0.13 0.16 0.14 0.14 0.15 0.17 0.17 0.17 0.16 0.15 0.15 0.16 0.12 0.05 0.02 0.01 0.02 0.02 0.04 0.03 0.02 0.01 0.02 0.02 0.01 0.01 0.02 0.01 0.00 0.00 0.00 0.00
0.01 0.01 0.01 0.01 0.02 0.01 0.02 0.03 0.05 0.07 0.11 0.14 0.14 0.15 0.12 0.12 0.13 0.13 0.15 0.15 0.15 0.18 0.19 0.14 0.09 0.05 0.03 0.01 0.00 0.02 0.02 0.02 0.02 0.02 0.02 0.01 0.01 0.01 0.01 0.00 0.00 0.00 0.00
0.01 0.01 0.00 0.01 0.01 0.01 0.01 0.02 0.04 0.06 0.08 0.12 0.15 0.16 0.11 0.08 0.11 0.11 0.10 0.12 0.16 0.20 0.22 0.18 0.14 0.10 0.07 0.03 0.01 0.01 0.01 0.01 0.02 0.02 0.02 0.03 0.02 0.01 0.01 0.00 0.00 0.00 0.01
0.00 0.00 0.00 0.00 0.00 0.01 0.01 0.02 0.03 0.04 0.05 0.07 0.11 0.11 0.10 0.08 0.08 0.07 0.07 0.10 0.14 0.18 0.21 0.21 0.21 0.18 0.13 0.08 0.04 0.01 0.02 0.02 0.02 0.03 0.03 0.02 0.02 0.01 0.01 0.00 0.00 0.00 0.01
0.00 0.00 0.00 0.00 0.00 0.00 0.01 0.01 0.02 0.03 0.04 0.04 0.07 0.09 0.10 0.10 0.09 0.06 0.04 0.06 0.11 0.16 0.21 0.22 0.22 0.21 0.17 0.15 0.11 0.06 0.03 0.02 0.02 0.02 0.03 0.03 0.02 0.01 0.00 0.00 0.00 0.00 0.01
0.00 0.00 0.00 0.00 0.00 0.00 0.00 0.01 0.01 0.02 0.03 0.03 0.05 0.08 0.08 0.09 0.09 0.07 0.05 0.04 0.07 0.11 0.17 0.22 0.21 0.21 0.20 0.20 0.15 0.12 0.06 0.03 0.02 0.02 0.02 0.04 0.06 0.04 0.02 0.02 0.01 0.01 0.02
0.00 0.00 0.00 0.00 0.00 0.00 0.00 0.00 0.00 0.01 0.01 0.03 0.04 0.05 0.08 0.07 0.08 0.10 0.08 0.06 0.05 0.08 0.13 0.17 0.19 0.21 0.19 0.20 0.20 0.21 0.14 0.06 0.04 0.03 0.02 0.03 0.04 0.05 0.04 0.04 0.03 0.02 0.02
0.00 0.00 0.00 0.00 0.00 0.00 0.00 0.01 0.01 0.01 0.01 0.02 0.04 0.05 0.07 0.06 0.06 0.07 0.07 0.06 0.05 0.05 0.07 0.11 0.16 0.18 0.20 0.21 0.21 0.24 0.20 0.11 0.06 0.04 0.03 0.02 0.01 0.02 0.04 0.05 0.05 0.04 0.04
0.00 0.00 0.00 0.00 0.00 0.00 0.01 0.01 0.01 0.01 0.01 0.01 0.03 0.02 0.03 0.06 0.07 0.07 0.06 0.06 0.06 0.04 0.03 0.07 0.14 0.17 0.19 0.26 0.28 0.26 0.18 0.16 0.11 0.06 0.03 0.02 0.01 0.01 0.02 0.02 0.03 0.04 0.04
0.00 0.00 0.00 0.00 0.00 0.00 0.01 0.01 0.01 0.01 0.01 0.02 0.03 0.02 0.02 0.03 0.05 0.07 0.07 0.06 0.06 0.05 0.03 0.03 0.08 0.15 0.20 0.25 0.31 0.31 0.25 0.22 0.18 0.12 0.07 0.03 0.02 0.02 0.01 0.01 0.01 0.01 0.02
0.00 0.00 0.00 0.00 0.00 0.00 0.01 0.01 0.01 0.01 0.02 0.02 0.03 0.03 0.02 0.03 0.04 0.06 0.06 0.06 0.07 0.06 0.04 0.02 0.04 0.10 0.22 0.28 0.29 0.31 0.30 0.26 0.20 0.16 0.11 0.07 0.03 0.02 0.01 0.01 0.01 0.01 0.01
0.00 0.00 0.00 0.01 0.01 0.01 0.01 0.00 0.01 0.01 0.01 0.02 0.02 0.02 0.02 0.03 0.03 0.04 0.06 0.06 0.05 0.06 0.05 0.03 0.03 0.04 0.13 0.29 0.35 0.33 0.29 0.23 0.21 0.19 0.16 0.11 0.07 0.04 0.02 0.01 0.01 0.01 0.01
0.00 0.00 0.00 0.01 0.02 0.02 0.02 0.02 0.02 0.01 0.01 0.02 0.02 0.02 0.03 0.03 0.03 0.03 0.04 0.05 0.05 0.06 0.06 0.04 0.03 0.03 0.05 0.15 0.30 0.34 0.30 0.25 0.22 0.22 0.21 0.17 0.11 0.07 0.04 0.03 0.02 0.01 0.01
0.00 0.00 0.00 0.00 0.01 0.02 0.02 0.02 0.03 0.02 0.02 0.01 0.02 0.02 0.02 0.03 0.03 0.03 0.03 0.04 0.06 0.07 0.07 0.06 0.05 0.04 0.05 0.07 0.14 0.23 0.27 0.23 0.22 0.22 0.21 0.19 0.16 0.12 0.07 0.05 0.03 0.02 0.02
0.00 0.00 0.00 0.00 0.00 0.01 0.02 0.02 0.02 0.03 0.03 0.02 0.03 0.02 0.01 0.02 0.03 0.03 0.02 0.04 0.06 0.07 0.08 0.07 0.05 0.04 0.04 0.04 0.05 0.11 0.19 0.22 0.23 0.23 0.23 0.20 0.17 0.13 0.09 0.07 0.06 0.04 0.03
0.00 0.00 0.00 0.00 0.00 0.00 0.00 0.01 0.03 0.03 0.02 0.02 0.02 0.01 0.02 0.02 0.02 0.03 0.03 0.04 0.06 0.07 0.07 0.07 0.05 0.04 0.03 0.03 0.04 0.07 0.14 0.18 0.20 0.18 0.18 0.19 0.17 0.14 0.11 0.09 0.07 0.06 0.05
0.00 0.00 0.00 0.00 0.00 0.00 0.00 0.01 0.02 0.02 0.03 0.03 0.02 0.01 0.01 0.01 0.01 0.02 0.02 0.02 0.04 0.07 0.07 0.08 0.07 0.04 0.04 0.05 0.06 0.06 0.10 0.12 0.12 0.15 0.18 0.18 0.17 0.13 0.10 0.10 0.12 0.12 0.10
0.00 0.00 0.00 0.00 0.00 0.00 0.00 0.01 0.01 0.01 0.02 0.02 0.02 0.02 0.02 0.02 0.02 0.02 0.01 0.01 0.01 0.03 0.04 0.04 0.05 0.05 0.06 0.07 0.08 0.10 0.11 0.13 0.13 0.15 0.18 0.21 0.20 0.17 0.15 0.14 0.15 0.14 0.14
0.00 0.00 0.00 0.00 0.00 0.00 0.00 0.01 0.01 0.01 0.01 0.01 0.01 0.02 0.02 0.02 0.02 0.02 0.01 0.00 0.00 0.01 0.01 0.02 0.03 0.05 0.07 0.08 0.08 0.10 0.11 0.13 0.12 0.11 0.12 0.14 0.17 0.22 0.24 0.21 0.21 0.21 0.19
0.00 0.00 0.00 0.00 0.00 0.00 0.00 0.00 0.01 0.01 0.01 0.01 0.01 0.02 0.02 0.01 0.01 0.01 0.01 0.00 0.00 0.00 0.01 0.01 0.01 0.03 0.04 0.06 0.08 0.08 0.09 0.11 0.13 0.11 0.10 0.11 0.14 0.18 0.23 0.23 0.22 0.20 0.19
MSLP
1012.84 1012.60 1012.33 1012.07 1011.86 1011.73 1011.70 1011.77 1011.90 1012.07 1012.25 1012.40 1012.51 1012.59 1012.64 1012.68 1012.73 1012.80 1012.91 1013.04 1013.19 1013.35 1013.51 1013.67 1013.84 1014.03 1014.23 1014.45 1014.69 1014.94 1015.19 1015.43 1015.64 1015.83 1016.02 1016.19 1016.37 1016.55 1016.74 1016.93 1017.10 1017.24 1017.34
1012.64 1012.37 1012.09 1011.85 1011.66 1011.57 1011.56 1011.65 1011.79 1011.97 1012.15 1012.30 1012.42 1012.49 1012.53 1012.57 1012.60 1012.66 1012.74 1012.85 1012.98 1013.14 1013.31 1013.50 1013.71 1013.94 1014.18 1014.44 1014.71 1014.97 1015.22 1015.46 1015.67 1015.88 1016.08 1016.29 1016.51 1016.74 1016.97 1017.18 1017.36 1017.50 1017.59
1012.33 1012.04 1011.77 1011.55 1011.41 1011.36 1011.40 1011.51 1011.68 1011.88 1012.07 1012.23 1012.35 1012.43 1012.48 1012.50 1012.52 1012.55 1012.60 1012.67 1012.76 1012.89 1013.05 1013.24 1013.47 1013.73 1014.01 1014.31 1014.60 1014.89 1015.15 1015.40 1015.63 1015.85 1016.08 1016.33 1016.58 1016.85 1017.12 1017.37 1017.57 1017.71 1017.79
1011.97 1011.67 1011.42 1011.24 1011.14 1011.14 1011.22 1011.36 1011.56 1011.77 1011.97 1012.14 1012.28 1012.38 1012.44 1012.47 1012.48 1012.48 1012.48 1012.50 1012.55 1012.63 1012.76 1012.93 1013.16 1013.44 1013.74 1014.07 1014.39 1014.70 1014.99 1015.25 1015.50 1015.75 1016.01 1016.28 1016.58 1016.89 1017.19 1017.46 1017.68 1017.83 1017.91
1011.67 1011.35 1011.12 1010.97 1010.91 1010.95 1011.05 1011.21 1011.41 1011.63 1011.83 1012.02 1012.18 1012.31 1012.39 1012.44 1012.46 1012.44 1012.42 1012.39 1012.38 1012.41 1012.49 1012.63 1012.84 1013.12 1013.43 1013.78 1014.12 1014.45 1014.76 1015.05 1015.32 1015.59 1015.87 1016.17 1016.50 1016.84 1017.16 1017.46 1017.70 1017.87 1017.96
1011.49 1011.16 1010.94 1010.81 1010.78 1010.82 1010.93 1011.09 1011.27 1011.47 1011.67 1011.86 1012.04 1012.20 1012.33 1012.41 1012.45 1012.44 1012.40 1012.35 1012.29 1012.27 1012.30 1012.40 1012.58 1012.83 1013.15 1013.49 1013.85 1014.19 1014.52 1014.82 1015.11 1015.39 1015.69 1016.01 1016.36 1016.71 1017.06 1017.37 1017.63 1017.82 1017.93
1011.49 1011.16 1010.94 1010.82 1010.78 1010.81 1010.89 1011.01 1011.15 1011.30 1011.48 1011.67 1011.87 1012.06 1012.23 1012.37 1012.45 1012.48 1012.45 1012.38 1012.30 1012.23 1012.22 1012.27 1012.41 1012.64 1012.93 1013.26 1013.61 1013.96 1014.29 1014.59 1014.89 1015.19 1015.50 1015.83 1016.18 1016.55 1016.90 1017.22 1017.50 1017.70 1017.85
1011.70 1011.36 1011.13 1010.99 1010.93 1010.92 1010.95 1011.00 1011.07 1011.17 1011.31 1011.48 1011.68 1011.91 1012.13 1012.33 1012.47 1012.53 1012.53 1012.47 1012.38 1012.30 1012.24 1012.26 1012.35 1012.53 1012.79 1013.09 1013.42 1013.75 1014.07 1014.38 1014.68 1014.98 1015.29 1015.63 1015.98 1016.35 1016.71 1017.04 1017.32 1017.55 1017.73
1012.06 1011.72 1011.47 1011.31 1011.21 1011.14 1011.10 1011.07 1011.06 1011.09 1011.18 1011.32 1011.53 1011.77 1012.03 1012.28 1012.47 1012.59 1012.63 1012.59 1012.50 1012.40 1012.32 1012.30 1012.35 1012.48 1012.69 1012.95 1013.24 1013.54 1013.84 1014.14 1014.44 1014.74 1015.06 1015.40 1015.76 1016.13 1016.49 1016.82 1017.12 1017.37 1017.58
1012.49 1012.15 1011.89 1011.70 1011.56 1011.43 1011.32 1011.21 1011.13 1011.09 1011.12 1011.23 1011.41 1011.66 1011.95 1012.22 1012.46 1012.61 1012.68 1012.67 1012.59 1012.48 1012.38 1012.32 1012.33 1012.41 1012.56 1012.77 1013.01 1013.28 1013.55 1013.84 1014.13 1014.44 1014.77 1015.12 1015.49 1015.87 1016.24 1016.58 1016.89 1017.17 1017.40
1012.89 1012.55 1012.29 1012.08 1011.90 1011.73 1011.57 1011.40 1011.26 1011.16 1011.14 1011.21 1011.37 1011.60 1011.88 1012.16 1012.41 1012.58 1012.66 1012.66 1012.58 1012.47 1012.35 1012.26 1012.22 1012.24 1012.34 1012.48 1012.68 1012.90 1013.15 1013.42 1013.71 1014.03 1014.38 1014.76 1015.15 1015.55 1015.94 1016.30 1016.63 1016.92 1017.18
1013.16 1012.85 1012.59 1012.38 1012.19 1012.00 1011.80 1011.60 1011.42 1011.29 1011.23 1011.26 1011.38 1011.59 1011.84 1012.09 1012.32 1012.48 1012.55 1012.53 1012.45 1012.32 1012.18 1012.05 1011.97 1011.95 1011.98 1012.07 1012.21 1012.39 1012.60 1012.86 1013.16 1013.50 1013.88 1014.29 1014.72 1015.16 1015.58 1015.97 1016.32 1016.63 1016.91
1013.29 1013.01 1012.77 1012.57 1012.38 1012.18 1011.98 1011.78 1011.59 1011.44 1011.36 1011.36 1011.45 1011.60 1011.80 1012.01 1012.18 1012.30 1012.33 1012.29 1012.19 1012.04 1011.87 1011.72 1011.60 1011.53 1011.50 1011.54 1011.62 1011.76 1011.94 1012.19 1012.49 1012.86 1013.27 1013.73 1014.21 1014.69 1015.15 1015.57 1015.95 1016.28 1016.58
1013.28 1013.03 1012.82 1012.64 1012.47 1012.29 1012.11 1011.92 1011.74 1011.60 1011.51 1011.48 1011.53 1011.63 1011.76 1011.90 1012.01 1012.06 1012.05 1011.97 1011.83 1011.66 1011.48 1011.30 1011.15 1011.04 1010.97 1010.95 1010.98 1011.07 1011.23 1011.46 1011.77 1012.15 1012.60 1013.10 1013.62 1014.15 1014.65 1015.11 1015.52 1015.88 1016.20
1013.20 1012.98 1012.80 1012.64 1012.49 1012.34 1012.18 1012.02 1011.86 1011.73 1011.64 1011.60 1011.61 1011.65 1011.71 1011.77 1011.81 1011.79 1011.72 1011.61 1011.45 1011.26 1011.06 1010.87 1010.70 1010.56 1010.45 1010.39 1010.37 1010.42 1010.54 1010.75 1011.05 1011.44 1011.91 1012.44 1013.01 1013.57 1014.12 1014.61 1015.05 1015.44 1015.79
1013.12 1012.93 1012.76 1012.62 1012.49 1012.36 1012.22 1012.08 1011.95 1011.83 1011.74 1011.68 1011.65 1011.64 1011.64 1011.63 1011.59 1011.52 1011.40 1011.25 1011.08 1010.89 1010.69 1010.50 1010.33 1010.17 1010.04 1009.94 1009.88 1009.89 1009.97 1010.14 1010.42 1010.80 1011.27 1011.81 1012.40 1012.99 1013.57 1014.09 1014.57 1014.98 1015.36
1013.10 1012.92 1012.77 1012.63 1012.51 1012.38 1012.25 1012.12 1011.99 1011.88 1011.78 1011.69 1011.63 1011.57 1011.52 1011.45 1011.36 1011.24 1011.10 1010.93 1010.76 1010.58 1010.41 1010.23 1010.07 1009.91 1009.76 1009.64 1009.55 1009.51 1009.55 1009.68 1009.92 1010.27 1010.72 1011.26 1011.84 1012.44 1013.02 1013.57 1014.07 1014.51 1014.91
1013.15 1012.99 1012.84 1012.69 1012.56 1012.41 1012.27 1012.13 1011.99 1011.86 1011.74 1011.64 1011.54 1011.44 1011.34 1011.23 1011.10 1010.96 1010.80 1010.64 1010.48 1010.33 1010.18 1010.04 1009.89 1009.75 1009.60 1009.46 1009.35 1009.27 1009.27 1009.35 1009.55 1009.86 1010.27 1010.77 1011.33 1011.92 1012.50 1013.05 1013.56 1014.02 1014.45
1013.25 1013.09 1012.93 1012.78 1012.61 1012.45 1012.28 1012.11 1011.94 1011.78 1011.64 1011.50 1011.37 1011.24 1011.11 1010.97 1010.82 1010.66 1010.50 1010.35 1010.21 1010.09 1009.97 1009.85 1009.74 1009.61 1009.48 1009.34 1009.21 1009.11 1009.08 1009.12 1009.27 1009.53 1009.89 1010.34 1010.86 1011.42 1011.98 1012.52 1013.03 1013.51 1013.96
1013.31 1013.16 1013.00 1012.82 1012.64 1012.44 1012.23 1012.03 1011.83 1011.64 1011.46 1011.29 1011.13 1010.97 1010.82 1010.66 1010.49 1010.33 1010.17 1010.02 1009.90 1009.79 1009.70 1009.61 1009.52 1009.42 1009.30 1009.17 1009.04 1008.94 1008.88 1008.89 1009.00 1009.21 1009.52 1009.93 1010.40 1010.91 1011.45 1011.97 1012.48 1012.96 1013.42
1013.24 1013.10 1012.94 1012.76 1012.56 1012.33 1012.10 1011.86 1011.63 1011.41 1011.21 1011.02 1010.84 1010.66 1010.48 1010.31 1010.13 1009.95 1009.78 1009.63 1009.50 1009.39 1009.31 1009.23 1009.15 1009.07 1008.97 1008.86 1008.75 1008.65 1008.59 1008.59 1008.68 1008.85 1009.13 1009.49 1009.92 1010.39 1010.89 1011.39 1011.88 1012.36 1012.82
1012.98 1012.86 1012.71 1012.53 1012.32 1012.09 1011.84 1011.59 1011.34 1011.11 1010.89 1010.69 1010.50 1010.32 1010.13 1009.94 1009.74 1009.54 1009.34 1009.16 1009.01 1008.88 1008.77 1008.68 1008.61 1008.53 1008.45 1008.36 1008.28 1008.20 1008.16 1008.17 1008.25 1008.42 1008.67 1009.00 1009.39 1009.83 1010.30 1010.77 1011.25 1011.72 1012.18
1012.50 1012.40 1012.27 1012.10 1011.91 1011.68 1011.45 1011.20 1010.96 1010.73 1010.52 1010.33 1010.15 1009.97 1009.77 1009.57 1009.34 1009.11 1008.87 1008.65 1008.44 1008.26 1008.11 1007.99 1007.90 1007.82 1007.75 1007.68 1007.63 1007.59 1007.58 1007.62 1007.72 1007.89 1008.13 1008.45 1008.82 1009.24 1009.68 1010.14 1010.60 1011.06 1011.53
1011.85 1011.76 1011.65 1011.50 1011.33 1011.13 1010.91 1010.69 1010.48 1010.28 1010.10 1009.93 1009.77 1009.61 1009.42 1009.20 1008.96 1008.68 1008.39 1008.10 1007.83 1007.58 1007.37 1007.20 1007.07 1006.98 1006.91 1006.87 1006.85 1006.85 1006.89 1006.97 1007.09 1007.28 1007.54 1007.85 1008.22 1008.63 1009.06 1009.51 1009.97 1010.42 1010.89
1011.13 1011.04 1010.93 1010.80 1010.64 1010.46 1010.27 1010.08 1009.91 1009.75 1009.62 1009.50 1009.38 1009.24 1009.06 1008.85 1008.58 1008.27 1007.92 1007.57 1007.21 1006.89 1006.61 1006.39 1006.22 1006.11 1006.04 1006.02 1006.03 1006.07 1006.15 1006.26 1006.43 1006.64 1006.91 1007.24 1007.61 1008.02 1008.45 1008.90 1009.36 1009.82 1010.29
1010.45 1010.33 1010.21 1010.08 1009.92 1009.75 1009.58 1009.42 1009.28 1009.17 1009.09 1009.01 1008.94 1008.83 1008.68 1008.47 1008.19 1007.85 1007.46 1007.04 1006.63 1006.24 1005.89 1005.62 1005.41 1005.28 1005.21 1005.19 1005.23 1005.30 1005.41 1005.57 1005.76 1005.99 1006.28 1006.61 1006.99 1007.40 1007.84 1008.30 1008.77 1009.25 1009.74
Thickness
5705 5708 5712 5714 5717 5721 5723 5725 5728 5731 5734 5737 5740 5742 5744 5746 5748 5749 5750 5751 5752 5752 5753 5753 5753 5752 5752 5752 5752 5752 5752 5751 5751 5751 5750 5750 5750 5749 5749 5749 5748 5748 5748
5699 5701 5704 5708 5711 5715 5718 5721 5724 5726 5729 5733 5736 5739 5741 5744 5746 5748 5749 5750 5752 5752 5752 5753 5752 5752 5752 5752 5752 5751 5751 5750 5750 5750 5749 5749 5749 5748 5748 5747 5747 5747 5746
5693 5695 5698 5701 5705 5709 5713 5716 5719 5722 5725 5728 5731 5735 5738 5741 5743 5745 5747 5748 5750 5751 5751 5752 5752 5752 5752 5752 5751 5751 5750 5750 5749 5749 5749 5748 5748 5747 5747 5746 5746 5746 5745
5688 5690 5692 5695 5699 5703 5707 5710 5713 5715 5719 5722 5726 5731 5735 5737 5739 5741 5743 5746 5747 5749 5750 5750 5751 5751 5751 5751 5751 5750 5749 5749 5748 5748 5748 5747 5747 5746 5746 5745 5745 5744 5744
5683 5685 5687 5690 5694 5697 5700 5704 5707 5710 5713 5717 5721 5726 5730 5733 5736 5738 5740 5743 5745 5746 5748 5749 5750 5750 5751 5751 5750 5750 5749 5748 5747 5747 5747 5746 5746 5745 5744 5744 5743 5743 5742
5678 5680 5682 5685 5688 5691 5694 5697 5700 5704 5708 5711 5716 5721 5724 5728 5731 5734 5737 5740 5742 5744 5745 5747 5748 5748 5749 5749 5750 5749 5749 5748 5747 5746 5745 5745 5745 5744 5743 5743 5742 5742 5741
5674 5675 5677 5680 5683 5685 5688 5692 5694 5697 5701 5705 5707 5710 5717 5722 5726 5729 5733 5736 5739 5741 5743 5745 5746 5747 5747 5748 5749 5748 5748 5748 5747 5746 5745 5744 5743 5743 5742 5742 5741 5740 5740
5671 5673 5673 5675 5677 5679 5682 5685 5688 5690 5694 5699 5700 5700 5703 5710 5719 5727 5729 5732 5735 5738 5740 5742 5744 5745 5746 5747 5747 5747 5747 5747 5747 5746 5745 5743 5742 5742 5741 5741 5740 5739 5739
5668 5669 5670 5671 5673 5675 5676 5679 5683 5684 5686 5691 5695 5696 5695 5698 5707 5717 5724 5729 5731 5734 5737 5739 5741 5743 5744 5745 5746 5746 5746 5746 5746 5745 5744 5743 5742 5741 5740 5739 5739 5738 5737
5666 5667 5667 5668 5670 5671 5673 5675 5678 5680 5682 5683 5688 5693 5696 5699 5699 5703 5713 5720 5726 5729 5732 5736 5738 5740 5741 5742 5743 5744 5744 5745 5744 5744 5744 5743 5741 5740 5739 5738 5737 5737 5736
5664 5665 5665 5666 5667 5668 5669 5671 5673 5675 5677 5679 5682 5685 5688 5692 5695 5696 5700 5708 5715 5723 5728 5732 5735 5737 5738 5739 5741 5742 5743 5743 5742 5742 5742 5742 5740 5739 5738 5737 5736 5735 5735
5663 5663 5664 5664 5664 5665 5666 5668 5669 5671 5673 5675 5677 5680 5682 5685 5688 5691 5693 5698 5704 5713 5721 5726 5730 5733 5735 5737 5738 5740 5741 5741 5741 5741 5740 5740 5739 5738 5737 5736 5735 5734 5733
5660 5661 5662 5661 5662 5663 5664 5665 5665 5667 5668 5670 5672 5675 5678 5682 5685 5687 5689 5691 5696 5704 5711 5718 5725 5728 5731 5733 5735 5737 5739 5739 5739 5739 5739 5738 5738 5737 5736 5735 5734 5733 5731
5660 5661 5660 5660 5660 5660 5661 5661 5661 5662 5664 5665 5667 5669 5673 5676 5680 5683 5685 5686 5688 5693 5701 5709 5717 5722 5726 5729 5732 5733 5735 5736 5736 5737 5736 5736 5736 5735 5734 5733 5732 5731 5730
5661 5660 5659 5658 5658 5657 5657 5657 5657 5658 5659 5660 5662 5665 5667 5671 5674 5679 5681 5683 5683 5684 5690 5701 5708 5716 5719 5723 5727 5728 5731 5732 5732 5733 5733 5733 5733 5732 5732 5731 5730 5729 5727
5661 5659 5658 5656 5655 5654 5654 5653 5653 5654 5654 5656 5658 5660 5662 5665 5668 5672 5676 5679 5682 5683 5685 5694 5701 5707 5712 5717 5721 5724 5726 5727 5728 5728 5729 5729 5729 5729 5728 5727 5727 5725 5724
5661 5659 5656 5654 5653 5652 5651 5650 5649 5649 5649 5650 5652 5654 5656 5660 5662 5666 5670 5674 5677 5680 5682 5688 5695 5700 5704 5709 5713 5717 5719 5721 5723 5724 5725 5725 5725 5725 5724 5724 5723 5722 5721
5661 5658 5656 5653 5651 5650 5648 5646 5645 5645 5644 5645 5646 5648 5650 5654 5657 5660 5664 5668 5671 5675 5678 5681 5686 5691 5697 5701 5706 5709 5712 5715 5717 5719 5719 5720 5721 5721 5720 5720 5719 5718 5717
5661 5658 5655 5652 5650 5648 5646 5644 5642 5642 5641 5641 5642 5643 5645 5648 5651 5654 5658 5662 5666 5670 5673 5676 5679 5684 5689 5694 5697 5701 5704 5708 5711 5713 5713 5714 5715 5716 5716 5715 5715 5714 5713
5660 5657 5654 5652 5649 5647 5645 5643 5641 5640 5639 5639 5639 5640 5642 5644 5646 5650 5653 5657 5660 5663 5667 5670 5673 5677 5681 5686 5689 5692 5695 5699 5703 5706 5708 5709 5709 5710 5711 5710 5710 5709 5708
5661 5657 5654 5651 5649 5647 5645 5642 5640 5639 5637 5637 5637 5638 5640 5642 5645 5648 5651 5653 5656 5658 5661 5663 5666 5670 5674 5677 5681 5685 5687 5691 5694 5699 5700 5702 5703 5704 5705 5705 5705 5705 5704
5661 5657 5654 5651 5648 5647 5646 5644 5641 5638 5637 5636 5636 5637 5639 5641 5644 5647 5649 5652 5654 5654 5656 5659 5661 5665 5669 5673 5676 5678 5680 5682 5685 5692 5693 5694 5696 5697 5699 5700 5701 5700 5699
5661 5657 5654 5651 5648 5647 5646 5645 5642 5639 5637 5636 5636 5636 5639 5641 5642 5643 5646 5649 5651 5654 5656 5657 5658 5661 5665 5669 5670 5671 5674 5676 5680 5685 5685 5686 5688 5690 5693 5694 5695 5694 5694
5661 5658 5655 5652 5649 5648 5648 5645 5643 5640 5638 5637 5636 5636 5637 5638 5640 5641 5642 5644 5646 5649 5652 5655 5657 5660 5662 5664 5667 5668 5669 5669 5672 5675 5677 5677 5680 5683 5685 5687 5688 5688 5688
5661 5659 5656 5653 5650 5649 5649 5646 5644 5640 5638 5637 5637 5637 5637 5637 5639 5640 5640 5640 5642 5644 5648 5651 5654 5656 5659 5661 5662 5661 5661 5661 5663 5666 5669 5670 5672 5673 5676 5678 5681 5681 5681
5662 5660 5657 5655 5652 5650 5649 5648 5645 5640 5637 5637 5637 5637 5637 5637 5638 5638 5637 5637 5638 5641 5643 5646 5649 5652 5654 5656 5658 5658 5659 5657 5657 5659 5662 5663 5664 5664 5664 5669 5672 5673 5673